StationID,Date,MaxTemp,MinTemp,Precipitation,Snowfall,SnowDepth
"USC00502692","1971-09-01",,,,0.00,0.00
"USC00502692","1971-09-02",,,,0.00,0.00
"USC00502692","1971-09-03",,,,0.00,0.00
"USC00502692","1971-09-04",,,,0.00,0.00
"USC00502692","1971-09-05",,,,0.00,0.00
"USC00502692","1971-09-06",,,,0.00,0.00
"USC00502692","1971-09-07",,,,0.00,0.00
"USC00502692","1971-09-08",,,,0.00,0.00
"USC00502692","1971-09-09",51.08,42.08,8.00,0.00,0.00
"USC00502692","1971-09-10",53.96,41.00,48.00,0.00,0.00
"USC00502692","1971-09-11",57.02,39.92,0.00,0.00,0.00
"USC00502692","1971-09-12",53.96,44.06,0.00,0.00,0.00
"USC00502692","1971-09-13",55.94,37.04,0.00,0.00,0.00
"USC00502692","1971-09-14",53.96,35.96,0.00,0.00,0.00
"USC00502692","1971-09-15",53.06,39.92,15.00,0.00,0.00
"USC00502692","1971-09-16",48.92,41.00,61.00,0.00,0.00
"USC00502692","1971-09-17",57.92,35.06,0.00,0.00,0.00
"USC00502692","1971-09-18",53.96,35.96,20.00,0.00,0.00
"USC00502692","1971-09-19",60.08,32.00,28.00,0.00,0.00
"USC00502692","1971-09-20",55.04,48.02,0.00,0.00,0.00
"USC00502692","1971-09-21",55.94,39.02,0.00,0.00,0.00
"USC00502692","1971-09-22",51.08,44.06,0.00,0.00,0.00
"USC00502692","1971-09-23",50.00,37.04,0.00,0.00,0.00
"USC00502692","1971-09-24",51.98,42.98,0.00,0.00,0.00
"USC00502692","1971-09-25",55.04,30.92,0.00,0.00,0.00
"USC00502692","1971-09-26",53.96,33.98,0.00,0.00,0.00
"USC00502692","1971-09-27",51.98,39.02,3.00,0.00,0.00
"USC00502692","1971-09-28",,,119.00,0.00,0.00
"USC00502692","1971-09-29",51.98,41.00,81.00,0.00,0.00
"USC00502692","1971-09-30",50.00,39.92,10.00,0.00,0.00
"USC00502692","1971-10-01",53.06,39.92,53.00,0.00,0.00
"USC00502692","1971-10-02",55.04,30.02,0.00,0.00,0.00
"USC00502692","1971-10-03",41.00,26.96,0.00,0.00,0.00
"USC00502692","1971-10-04",33.98,21.92,0.00,0.00,0.00
"USC00502692","1971-10-05",39.02,15.08,0.00,0.00,0.00
"USC00502692","1971-10-06",37.94,21.92,0.00,0.00,0.00
"USC00502692","1971-10-07",37.94,30.02,173.00,0.00,0.00
"USC00502692","1971-10-08",37.04,30.02,81.00,76.00,51.00
"USC00502692","1971-10-09",41.00,26.96,107.00,0.00,0.00
"USC00502692","1971-10-10",41.00,32.00,15.00,0.00,0.00
"USC00502692","1971-10-11",39.02,28.94,0.00,0.00,0.00
"USC00502692","1971-10-12",46.04,26.96,3.00,0.00,0.00
"USC00502692","1971-10-13",42.98,30.02,0.00,0.00,0.00
"USC00502692","1971-10-14",46.04,35.96,0.00,0.00,0.00
"USC00502692","1971-10-15",48.92,32.00,109.00,0.00,0.00
"USC00502692","1971-10-16",48.92,30.02,61.00,0.00,0.00
"USC00502692","1971-10-17",48.02,28.94,28.00,0.00,0.00
"USC00502692","1971-10-18",46.04,32.00,0.00,0.00,0.00
"USC00502692","1971-10-19",42.08,30.02,0.00,0.00,0.00
"USC00502692","1971-10-20",42.08,24.98,0.00,0.00,0.00
"USC00502692","1971-10-21",35.06,21.02,0.00,0.00,0.00
"USC00502692","1971-10-22",39.02,26.06,33.00,0.00,0.00
"USC00502692","1971-10-23",37.04,12.92,0.00,0.00,0.00
"USC00502692","1971-10-24",33.98,17.96,13.00,13.00,0.00
"USC00502692","1971-10-25",41.00,26.96,3.00,0.00,0.00
"USC00502692","1971-10-26",44.96,30.02,0.00,0.00,0.00
"USC00502692","1971-10-27",41.00,30.92,97.00,0.00,0.00
"USC00502692","1971-10-28",,,0.00,0.00,0.00
"USC00502692","1971-10-29",42.08,30.92,5.00,0.00,0.00
"USC00502692","1971-10-30",44.06,28.04,0.00,0.00,0.00
"USC00502692","1971-10-31",39.02,24.98,0.00,0.00,0.00
"USC00502692","1971-11-01",46.04,24.98,15.00,0.00,0.00
"USC00502692","1971-11-02",28.94,17.96,0.00,0.00,0.00
"USC00502692","1971-11-03",24.98,8.96,0.00,0.00,0.00
"USC00502692","1971-11-04",39.02,21.02,0.00,0.00,0.00
"USC00502692","1971-11-05",37.94,32.00,5.00,0.00,0.00
"USC00502692","1971-11-06",35.06,24.08,0.00,0.00,0.00
"USC00502692","1971-11-07",35.06,24.98,0.00,0.00,0.00
"USC00502692","1971-11-08",33.08,17.96,0.00,0.00,0.00
"USC00502692","1971-11-09",24.98,8.06,0.00,0.00,0.00
"USC00502692","1971-11-10",37.94,10.94,0.00,0.00,0.00
"USC00502692","1971-11-11",37.94,28.04,71.00,0.00,0.00
"USC00502692","1971-11-12",28.94,17.96,0.00,0.00,0.00
"USC00502692","1971-11-13",37.04,24.08,13.00,0.00,0.00
"USC00502692","1971-11-14",37.94,21.02,0.00,0.00,0.00
"USC00502692","1971-11-15",42.08,30.02,0.00,0.00,0.00
"USC00502692","1971-11-16",41.00,23.00,0.00,0.00,0.00
"USC00502692","1971-11-17",44.06,24.08,64.00,0.00,0.00
"USC00502692","1971-11-18",42.08,33.98,0.00,0.00,0.00
"USC00502692","1971-11-19",39.92,32.00,30.00,0.00,0.00
"USC00502692","1971-11-20",37.04,30.02,53.00,0.00,0.00
"USC00502692","1971-11-21",33.98,14.00,,8.00,0.00
"USC00502692","1971-11-22",21.92,8.06,0.00,0.00,0.00
"USC00502692","1971-11-23",33.98,15.98,0.00,0.00,0.00
"USC00502692","1971-11-24",28.04,12.02,0.00,0.00,0.00
"USC00502692","1971-11-25",24.08,12.92,0.00,0.00,0.00
"USC00502692","1971-11-26",17.96,1.04,0.00,0.00,0.00
"USC00502692","1971-11-27",5.00,-2.92,0.00,0.00,0.00
"USC00502692","1971-11-28",,,0.00,0.00,0.00
"USC00502692","1971-11-29",-0.04,-7.96,0.00,0.00,0.00
"USC00502692","1971-11-30",-0.04,-5.98,0.00,0.00,0.00
"USC00502692","1971-12-01",1.04,-5.98,0.00,0.00,0.00
"USC00502692","1971-12-02",-2.02,-14.08,0.00,0.00,0.00
"USC00502692","1971-12-03",-2.02,-13.00,0.00,0.00,0.00
"USC00502692","1971-12-04",5.00,-14.08,0.00,0.00,0.00
"USC00502692","1971-12-05",35.06,-0.04,5.00,0.00,0.00
"USC00502692","1971-12-06",39.02,28.94,10.00,0.00,0.00
"USC00502692","1971-12-07",37.94,28.04,41.00,0.00,0.00
"USC00502692","1971-12-08",30.92,21.02,0.00,0.00,0.00
"USC00502692","1971-12-09",35.96,19.04,0.00,0.00,0.00
"USC00502692","1971-12-10",30.02,8.96,0.00,0.00,0.00
"USC00502692","1971-12-11",33.08,21.02,0.00,0.00,0.00
"USC00502692","1971-12-12",35.06,24.08,58.00,0.00,0.00
"USC00502692","1971-12-13",37.04,26.06,33.00,0.00,0.00
"USC00502692","1971-12-14",37.04,19.94,0.00,0.00,0.00
"USC00502692","1971-12-15",35.06,10.94,58.00,38.00,0.00
"USC00502692","1971-12-16",17.06,6.08,,,
"USC00502692","1971-12-17",39.02,8.96,,,
"USC00502692","1971-12-18",33.98,30.92,,,
"USC00502692","1971-12-19",30.92,-0.04,,,
"USC00502692","1971-12-20",3.92,-0.94,,,
"USC00502692","1971-12-21",12.02,-0.94,,,
"USC00502692","1971-12-22",28.04,12.02,,,
"USC00502692","1971-12-23",37.94,28.04,,,
"USC00502692","1971-12-24",39.92,37.04,,,
"USC00502692","1971-12-25",39.92,35.96,,,
"USC00502692","1971-12-26",37.04,28.94,,,
"USC00502692","1971-12-27",35.96,32.00,,,
"USC00502692","1971-12-28",32.00,26.06,,,
"USC00502692","1971-12-29",32.00,17.96,,,
"USC00502692","1971-12-30",30.92,28.04,,,
"USC00502692","1971-12-31",30.92,17.06,5.00,13.00,
"USC00502692","1972-01-01",32.00,15.08,0.00,0.00,0.00
"USC00502692","1972-01-02",35.96,30.02,0.00,0.00,0.00
"USC00502692","1972-01-03",33.98,24.98,0.00,0.00,0.00
"USC00502692","1972-01-04",35.96,23.00,28.00,25.00,25.00
"USC00502692","1972-01-05",33.98,17.96,18.00,20.00,51.00
"USC00502692","1972-01-06",32.00,14.00,3.00,13.00,51.00
"USC00502692","1972-01-07",15.98,-0.94,3.00,10.00,76.00
"USC00502692","1972-01-08",3.92,-4.00,0.00,0.00,
"USC00502692","1972-01-09",1.94,-11.02,0.00,0.00,
"USC00502692","1972-01-10",-4.00,-18.94,0.00,0.00,
"USC00502692","1972-01-11",-11.02,-18.94,0.00,0.00,
"USC00502692","1972-01-12",1.94,-20.92,0.00,0.00,
"USC00502692","1972-01-13",15.98,-0.94,28.00,58.00,127.00
"USC00502692","1972-01-14",14.00,-0.04,0.00,0.00,
"USC00502692","1972-01-15",3.92,-4.00,0.00,0.00,
"USC00502692","1972-01-16",6.08,-11.02,0.00,0.00,
"USC00502692","1972-01-17",-0.04,-11.02,0.00,0.00,
"USC00502692","1972-01-18",1.04,-11.02,0.00,0.00,
"USC00502692","1972-01-19",6.08,-16.96,0.00,0.00,
"USC00502692","1972-01-20",-0.04,-9.94,0.00,0.00,
"USC00502692","1972-01-21",1.04,-20.02,0.00,0.00,
"USC00502692","1972-01-22",-2.92,-16.96,0.00,0.00,
"USC00502692","1972-01-23",15.98,-13.00,0.00,0.00,
"USC00502692","1972-01-24",30.92,15.08,0.00,0.00,
"USC00502692","1972-01-25",35.96,26.06,0.00,0.00,
"USC00502692","1972-01-26",37.04,26.06,0.00,0.00,
"USC00502692","1972-01-27",37.04,24.98,122.00,0.00,
"USC00502692","1972-01-28",37.04,30.02,33.00,0.00,
"USC00502692","1972-01-29",32.00,23.00,0.00,0.00,
"USC00502692","1972-01-30",35.06,24.98,56.00,0.00,
"USC00502692","1972-01-31",33.98,24.08,41.00,13.00,25.00
"USC00502692","1972-02-01",28.04,17.96,13.00,10.00,
"USC00502692","1972-02-02",26.06,15.98,5.00,10.00,
"USC00502692","1972-02-03",35.96,19.94,0.00,0.00,
"USC00502692","1972-02-04",35.96,24.08,0.00,0.00,
"USC00502692","1972-02-05",30.02,8.96,0.00,0.00,
"USC00502692","1972-02-06",10.04,1.04,3.00,13.00,25.00
"USC00502692","1972-02-07",21.02,1.94,0.00,0.00,
"USC00502692","1972-02-08",37.94,10.94,0.00,0.00,25.00
"USC00502692","1972-02-09",35.06,14.00,3.00,13.00,51.00
"USC00502692","1972-02-10",28.94,12.92,13.00,33.00,76.00
"USC00502692","1972-02-11",24.08,14.00,0.00,0.00,76.00
"USC00502692","1972-02-12",15.98,1.94,3.00,38.00,102.00
"USC00502692","1972-02-13",6.98,-9.94,0.00,0.00,
"USC00502692","1972-02-14",8.96,-20.02,15.00,0.00,
"USC00502692","1972-02-15",8.96,-7.06,0.00,0.00,
"USC00502692","1972-02-16",8.96,-14.08,0.00,0.00,
"USC00502692","1972-02-17",-0.94,-16.06,0.00,0.00,
"USC00502692","1972-02-18",-0.94,-16.96,0.00,0.00,
"USC00502692","1972-02-19",17.96,-16.96,0.00,0.00,
"USC00502692","1972-02-20",21.02,3.02,0.00,0.00,
"USC00502692","1972-02-21",17.06,1.94,0.00,0.00,
"USC00502692","1972-02-22",17.06,-7.96,0.00,0.00,
"USC00502692","1972-02-23",32.00,10.04,0.00,0.00,
"USC00502692","1972-02-24",32.00,17.06,0.00,0.00,
"USC00502692","1972-02-25",26.96,3.92,0.00,0.00,
"USC00502692","1972-02-26",26.06,8.96,0.00,0.00,
"USC00502692","1972-02-27",24.08,17.96,0.00,0.00,
"USC00502692","1972-02-28",24.08,5.00,0.00,0.00,
"USC00502692","1972-02-29",19.94,1.04,0.00,0.00,
"USC00502692","1972-03-01",21.02,-9.04,0.00,0.00,0.00
"USC00502692","1972-03-02",15.08,-5.98,0.00,0.00,0.00
"USC00502692","1972-03-03",15.98,-4.00,0.00,0.00,0.00
"USC00502692","1972-03-04",21.92,-0.04,0.00,0.00,0.00
"USC00502692","1972-03-05",17.96,-5.08,0.00,0.00,0.00
"USC00502692","1972-03-06",10.04,-4.00,0.00,0.00,0.00
"USC00502692","1972-03-07",6.08,-7.96,0.00,0.00,0.00
"USC00502692","1972-03-08",6.08,-7.96,0.00,0.00,0.00
"USC00502692","1972-03-09",6.08,-7.06,0.00,0.00,0.00
"USC00502692","1972-03-10",6.08,-16.96,0.00,0.00,0.00
"USC00502692","1972-03-11",12.02,-11.02,0.00,0.00,0.00
"USC00502692","1972-03-12",15.98,-2.92,0.00,0.00,0.00
"USC00502692","1972-03-13",12.02,-11.02,0.00,0.00,0.00
"USC00502692","1972-03-14",14.00,-9.94,0.00,0.00,0.00
"USC00502692","1972-03-15",10.04,-11.02,0.00,0.00,0.00
"USC00502692","1972-03-16",15.98,-0.04,0.00,0.00,0.00
"USC00502692","1972-03-17",12.92,-5.98,0.00,0.00,0.00
"USC00502692","1972-03-18",19.04,3.02,0.00,0.00,0.00
"USC00502692","1972-03-19",24.98,-9.04,0.00,0.00,0.00
"USC00502692","1972-03-20",21.02,10.94,0.00,0.00,0.00
"USC00502692","1972-03-21",21.92,10.04,10.00,43.00,51.00
"USC00502692","1972-03-22",19.04,-7.06,0.00,0.00,51.00
"USC00502692","1972-03-23",14.00,-11.92,0.00,0.00,51.00
"USC00502692","1972-03-24",33.98,-2.92,,8.00,51.00
"USC00502692","1972-03-25",35.06,24.98,0.00,0.00,51.00
"USC00502692","1972-03-26",35.06,28.04,13.00,0.00,25.00
"USC00502692","1972-03-27",35.06,6.98,0.00,0.00,25.00
"USC00502692","1972-03-28",10.04,-9.04,0.00,0.00,25.00
"USC00502692","1972-03-29",10.94,-11.92,0.00,0.00,25.00
"USC00502692","1972-03-30",14.00,-7.06,0.00,0.00,25.00
"USC00502692","1972-03-31",21.92,-0.04,0.00,0.00,25.00
"USC00502692","1972-04-01",30.02,15.08,0.00,25.00,25.00
"USC00502692","1972-04-02",33.98,10.94,0.00,0.00,0.00
"USC00502692","1972-04-03",35.06,17.96,8.00,0.00,0.00
"USC00502692","1972-04-04",35.06,10.04,0.00,0.00,0.00
"USC00502692","1972-04-05",21.02,10.04,0.00,0.00,0.00
"USC00502692","1972-04-06",19.04,3.92,0.00,0.00,0.00
"USC00502692","1972-04-07",23.00,5.00,0.00,0.00,0.00
"USC00502692","1972-04-08",26.96,3.92,0.00,0.00,0.00
"USC00502692","1972-04-09",32.00,21.02,0.00,0.00,0.00
"USC00502692","1972-04-10",35.06,26.06,8.00,0.00,0.00
"USC00502692","1972-04-11",30.92,26.06,0.00,0.00,0.00
"USC00502692","1972-04-12",33.98,28.04,74.00,0.00,0.00
"USC00502692","1972-04-13",28.94,17.06,0.00,0.00,0.00
"USC00502692","1972-04-14",32.00,15.98,0.00,0.00,0.00
"USC00502692","1972-04-15",26.96,6.98,0.00,0.00,0.00
"USC00502692","1972-04-16",35.06,19.94,5.00,0.00,0.00
"USC00502692","1972-04-17",32.00,10.04,30.00,0.00,0.00
"USC00502692","1972-04-18",26.96,17.96,3.00,0.00,0.00
"USC00502692","1972-04-19",21.02,8.96,0.00,0.00,0.00
"USC00502692","1972-04-20",26.96,8.96,0.00,0.00,0.00
"USC00502692","1972-04-21",33.08,3.02,0.00,0.00,0.00
"USC00502692","1972-04-22",37.04,17.06,0.00,0.00,0.00
"USC00502692","1972-04-23",35.06,12.02,0.00,0.00,0.00
"USC00502692","1972-04-24",35.06,26.06,0.00,0.00,0.00
"USC00502692","1972-04-25",37.04,28.04,0.00,0.00,0.00
"USC00502692","1972-04-26",32.00,23.00,3.00,13.00,25.00
"USC00502692","1972-04-27",32.00,15.08,0.00,0.00,0.00
"USC00502692","1972-04-28",35.96,17.96,0.00,0.00,0.00
"USC00502692","1972-04-29",32.00,23.00,15.00,0.00,0.00
"USC00502692","1972-04-30",39.92,30.92,15.00,0.00,0.00
"USC00502692","1972-05-01",39.02,26.06,0.00,0.00,0.00
"USC00502692","1972-05-02",42.08,28.04,0.00,0.00,0.00
"USC00502692","1972-05-03",44.06,30.02,0.00,0.00,0.00
"USC00502692","1972-05-04",44.06,28.04,30.00,0.00,0.00
"USC00502692","1972-05-05",41.00,30.02,28.00,0.00,0.00
"USC00502692","1972-05-06",42.08,30.02,3.00,0.00,0.00
"USC00502692","1972-05-07",42.08,30.02,0.00,0.00,0.00
"USC00502692","1972-05-08",55.04,30.02,0.00,0.00,0.00
"USC00502692","1972-05-09",55.04,30.02,0.00,0.00,0.00
"USC00502692","1972-05-10",55.94,28.94,0.00,0.00,0.00
"USC00502692","1972-05-11",48.92,28.04,0.00,0.00,0.00
"USC00502692","1972-05-12",48.02,30.02,0.00,0.00,0.00
"USC00502692","1972-05-13",46.94,28.94,0.00,0.00,0.00
"USC00502692","1972-05-14",39.92,28.94,0.00,0.00,0.00
"USC00502692","1972-05-15",44.06,26.96,0.00,0.00,0.00
"USC00502692","1972-05-16",46.94,24.98,0.00,0.00,0.00
"USC00502692","1972-05-17",48.02,30.02,0.00,0.00,0.00
"USC00502692","1972-05-18",44.96,35.96,114.00,0.00,0.00
"USC00502692","1972-05-19",44.06,30.02,3.00,0.00,0.00
"USC00502692","1972-05-20",35.96,28.94,0.00,0.00,0.00
"USC00502692","1972-05-21",46.94,28.94,0.00,0.00,0.00
"USC00502692","1972-05-22",48.92,30.02,0.00,0.00,0.00
"USC00502692","1972-05-23",42.08,30.02,0.00,0.00,0.00
"USC00502692","1972-05-24",50.00,35.96,0.00,0.00,0.00
"USC00502692","1972-05-25",48.92,35.96,0.00,0.00,0.00
"USC00502692","1972-05-26",55.94,37.94,0.00,0.00,0.00
"USC00502692","1972-05-27",51.98,39.92,0.00,0.00,0.00
"USC00502692","1972-05-28",42.08,35.96,0.00,0.00,0.00
"USC00502692","1972-05-29",42.98,37.94,0.00,0.00,0.00
"USC00502692","1972-05-30",42.98,33.98,0.00,0.00,0.00
"USC00502692","1972-05-31",48.92,37.04,0.00,0.00,0.00
"USC00502692","1972-06-01",44.06,35.96,0.00,0.00,0.00
"USC00502692","1972-06-02",39.02,35.06,0.00,0.00,0.00
"USC00502692","1972-06-03",42.98,33.98,0.00,0.00,0.00
"USC00502692","1972-06-04",44.06,37.94,0.00,0.00,0.00
"USC00502692","1972-06-05",42.98,35.96,0.00,0.00,0.00
"USC00502692","1972-06-06",51.98,42.08,0.00,0.00,0.00
"USC00502692","1972-06-07",46.04,32.00,0.00,0.00,0.00
"USC00502692","1972-06-08",51.98,41.00,0.00,0.00,0.00
"USC00502692","1972-06-09",51.98,39.02,0.00,0.00,0.00
"USC00502692","1972-06-10",50.00,39.92,5.00,0.00,0.00
"USC00502692","1972-06-11",53.96,39.02,0.00,0.00,0.00
"USC00502692","1972-06-12",55.94,37.94,0.00,0.00,0.00
"USC00502692","1972-06-13",55.04,39.02,0.00,0.00,0.00
"USC00502692","1972-06-14",55.94,42.98,20.00,0.00,0.00
"USC00502692","1972-06-15",55.94,41.00,0.00,0.00,0.00
"USC00502692","1972-06-16",55.04,39.92,0.00,0.00,0.00
"USC00502692","1972-06-17",55.94,39.92,0.00,0.00,0.00
"USC00502692","1972-06-18",51.98,35.06,0.00,0.00,0.00
"USC00502692","1972-06-19",51.08,41.00,3.00,0.00,0.00
"USC00502692","1972-06-20",48.02,41.00,135.00,0.00,0.00
"USC00502692","1972-06-21",48.02,35.96,8.00,0.00,0.00
"USC00502692","1972-06-22",53.96,39.02,0.00,0.00,0.00
"USC00502692","1972-06-23",51.08,35.96,13.00,0.00,0.00
"USC00502692","1972-06-24",55.04,39.02,0.00,0.00,0.00
"USC00502692","1972-06-25",57.02,39.02,43.00,0.00,0.00
"USC00502692","1972-06-26",48.92,42.08,23.00,0.00,0.00
"USC00502692","1972-06-27",60.08,42.08,0.00,0.00,0.00
"USC00502692","1972-06-28",57.02,37.04,0.00,0.00,0.00
"USC00502692","1972-06-29",48.02,37.94,0.00,0.00,0.00
"USC00502692","1972-06-30",60.98,35.96,0.00,0.00,0.00
"USC00502692","1972-07-01",57.02,37.94,0.00,0.00,0.00
"USC00502692","1972-07-02",55.04,44.06,0.00,0.00,0.00
"USC00502692","1972-07-03",57.02,44.96,0.00,0.00,0.00
"USC00502692","1972-07-04",55.94,44.96,0.00,0.00,0.00
"USC00502692","1972-07-05",60.08,41.00,0.00,0.00,0.00
"USC00502692","1972-07-06",71.06,42.98,0.00,0.00,0.00
"USC00502692","1972-07-07",75.02,48.02,0.00,0.00,0.00
"USC00502692","1972-07-08",71.96,39.02,0.00,0.00,0.00
"USC00502692","1972-07-09",66.92,39.92,0.00,0.00,0.00
"USC00502692","1972-07-10",71.96,42.98,0.00,0.00,0.00
"USC00502692","1972-07-11",66.92,46.04,0.00,0.00,0.00
"USC00502692","1972-07-12",66.92,44.06,0.00,0.00,0.00
"USC00502692","1972-07-13",59.00,39.02,33.00,0.00,0.00
"USC00502692","1972-07-14",,,,0.00,0.00
"USC00502692","1972-07-15",,,,0.00,0.00
"USC00502692","1972-07-16",,,,0.00,0.00
"USC00502692","1972-07-17",,,,0.00,0.00
"USC00502692","1972-07-18",,,,0.00,0.00
"USC00502692","1972-07-19",,,,0.00,0.00
"USC00502692","1972-07-20",,,,0.00,0.00
"USC00502692","1972-07-21",,,,0.00,0.00
"USC00502692","1972-07-22",,,,0.00,0.00
"USC00502692","1972-07-23",55.94,46.94,0.00,0.00,0.00
"USC00502692","1972-07-24",51.98,46.04,0.00,0.00,0.00
"USC00502692","1972-07-25",57.02,48.92,0.00,0.00,0.00
"USC00502692","1972-07-26",51.98,48.92,0.00,0.00,0.00
"USC00502692","1972-07-27",62.96,42.98,0.00,0.00,0.00
"USC00502692","1972-07-28",53.06,46.94,0.00,0.00,0.00
"USC00502692","1972-07-29",64.94,48.02,0.00,0.00,0.00
"USC00502692","1972-07-30",66.02,51.98,0.00,0.00,0.00
"USC00502692","1972-07-31",64.94,51.08,0.00,0.00,0.00
"USC00502692","1972-08-01",68.00,51.98,,0.00,0.00
"USC00502692","1972-08-02",68.00,51.98,,0.00,0.00
"USC00502692","1972-08-03",64.04,50.00,,0.00,0.00
"USC00502692","1972-08-04",66.02,53.06,,0.00,0.00
"USC00502692","1972-08-05",62.06,51.08,,0.00,0.00
"USC00502692","1972-08-06",66.02,50.00,,0.00,0.00
"USC00502692","1972-08-07",60.08,48.02,,0.00,0.00
"USC00502692","1972-08-08",55.04,48.02,,0.00,0.00
"USC00502692","1972-08-09",57.92,48.02,,0.00,0.00
"USC00502692","1972-08-10",71.96,46.04,,0.00,0.00
"USC00502692","1972-08-11",62.96,50.00,,0.00,0.00
"USC00502692","1972-08-12",55.94,48.92,,0.00,0.00
"USC00502692","1972-08-13",59.00,50.00,,0.00,0.00
"USC00502692","1972-08-14",57.92,48.92,,0.00,0.00
"USC00502692","1972-08-15",57.92,48.92,,0.00,0.00
"USC00502692","1972-08-16",59.00,48.02,,0.00,0.00
"USC00502692","1972-08-17",62.06,50.00,,0.00,0.00
"USC00502692","1972-08-18",62.06,50.00,,0.00,0.00
"USC00502692","1972-08-19",57.92,48.02,,0.00,0.00
"USC00502692","1972-08-20",55.94,46.94,,0.00,0.00
"USC00502692","1972-08-21",59.00,48.92,,0.00,0.00
"USC00502692","1972-08-22",62.06,48.92,,0.00,0.00
"USC00502692","1972-08-23",60.08,46.94,,0.00,0.00
"USC00502692","1972-08-24",60.98,48.02,,0.00,0.00
"USC00502692","1972-08-25",64.94,46.94,,0.00,0.00
"USC00502692","1972-08-26",60.08,44.06,,0.00,0.00
"USC00502692","1972-08-27",60.08,41.00,,0.00,0.00
"USC00502692","1972-08-28",55.04,37.04,0.00,0.00,0.00
"USC00502692","1972-08-29",55.94,46.04,23.00,0.00,0.00
"USC00502692","1972-08-30",57.92,42.98,86.00,0.00,0.00
"USC00502692","1972-08-31",60.98,44.96,0.00,0.00,0.00
"USC00502692","1972-09-01",59.00,44.96,33.00,0.00,0.00
"USC00502692","1972-09-02",62.06,42.08,30.00,0.00,0.00
"USC00502692","1972-09-03",59.00,46.94,0.00,0.00,0.00
"USC00502692","1972-09-04",53.06,44.96,74.00,0.00,0.00
"USC00502692","1972-09-05",53.06,46.04,53.00,0.00,0.00
"USC00502692","1972-09-06",53.06,44.96,23.00,0.00,0.00
"USC00502692","1972-09-07",51.98,46.04,0.00,0.00,0.00
"USC00502692","1972-09-08",55.04,39.92,0.00,0.00,0.00
"USC00502692","1972-09-09",55.04,41.00,56.00,0.00,0.00
"USC00502692","1972-09-10",55.04,39.92,0.00,0.00,0.00
"USC00502692","1972-09-11",55.94,37.94,0.00,0.00,0.00
"USC00502692","1972-09-12",53.06,42.08,104.00,0.00,0.00
"USC00502692","1972-09-13",51.98,37.94,10.00,0.00,0.00
"USC00502692","1972-09-14",51.98,44.06,58.00,0.00,0.00
"USC00502692","1972-09-15",51.08,39.02,0.00,0.00,0.00
"USC00502692","1972-09-16",48.92,39.02,0.00,0.00,0.00
"USC00502692","1972-09-17",48.02,33.98,0.00,0.00,0.00
"USC00502692","1972-09-18",48.92,35.96,0.00,0.00,0.00
"USC00502692","1972-09-19",50.00,28.94,0.00,0.00,0.00
"USC00502692","1972-09-20",55.94,32.00,0.00,0.00,0.00
"USC00502692","1972-09-21",57.02,33.08,0.00,0.00,0.00
"USC00502692","1972-09-22",60.08,24.98,0.00,0.00,0.00
"USC00502692","1972-09-23",57.02,33.08,0.00,0.00,0.00
"USC00502692","1972-09-24",53.96,42.98,0.00,0.00,0.00
"USC00502692","1972-09-25",55.04,44.06,0.00,0.00,0.00
"USC00502692","1972-09-26",51.98,44.96,0.00,0.00,0.00
"USC00502692","1972-09-27",53.96,44.06,0.00,0.00,0.00
"USC00502692","1972-09-28",51.08,37.04,140.00,0.00,0.00
"USC00502692","1972-09-29",48.02,35.06,81.00,0.00,0.00
"USC00502692","1972-09-30",41.00,26.96,23.00,0.00,0.00
"USC00502692","1972-10-01",39.02,24.08,0.00,0.00,0.00
"USC00502692","1972-10-02",39.02,26.06,0.00,0.00,0.00
"USC00502692","1972-10-03",41.00,28.94,0.00,0.00,0.00
"USC00502692","1972-10-04",46.04,28.94,28.00,0.00,0.00
"USC00502692","1972-10-05",42.08,28.94,0.00,0.00,0.00
"USC00502692","1972-10-06",37.04,26.06,0.00,0.00,0.00
"USC00502692","1972-10-07",44.06,24.08,0.00,0.00,0.00
"USC00502692","1972-10-08",48.02,24.98,0.00,0.00,0.00
"USC00502692","1972-10-09",50.00,30.02,0.00,0.00,0.00
"USC00502692","1972-10-10",48.02,35.06,84.00,0.00,0.00
"USC00502692","1972-10-11",46.94,39.02,23.00,0.00,0.00
"USC00502692","1972-10-12",48.02,28.04,0.00,0.00,0.00
"USC00502692","1972-10-13",46.94,33.98,20.00,0.00,0.00
"USC00502692","1972-10-14",51.98,39.02,130.00,0.00,0.00
"USC00502692","1972-10-15",53.06,,0.00,0.00,0.00
"USC00502692","1972-10-16",51.98,,0.00,0.00,0.00
"USC00502692","1972-10-17",48.92,30.92,8.00,0.00,0.00
"USC00502692","1972-10-18",41.00,30.92,64.00,0.00,0.00
"USC00502692","1972-10-19",44.06,28.94,10.00,0.00,0.00
"USC00502692","1972-10-20",48.02,32.00,0.00,0.00,0.00
"USC00502692","1972-10-21",44.96,37.04,89.00,0.00,0.00
"USC00502692","1972-10-22",42.08,32.00,0.00,0.00,0.00
"USC00502692","1972-10-23",39.92,32.00,0.00,0.00,0.00
"USC00502692","1972-10-24",42.98,24.98,0.00,0.00,0.00
"USC00502692","1972-10-25",42.98,30.92,8.00,0.00,0.00
"USC00502692","1972-10-26",44.06,32.00,0.00,0.00,0.00
"USC00502692","1972-10-27",44.96,33.98,0.00,0.00,0.00
"USC00502692","1972-10-28",42.08,28.94,117.00,0.00,0.00
"USC00502692","1972-10-29",39.02,28.94,0.00,0.00,0.00
"USC00502692","1972-10-30",42.08,24.08,0.00,0.00,0.00
"USC00502692","1972-10-31",44.06,28.94,0.00,0.00,0.00
"USC00502692","1972-11-01",39.02,24.08,0.00,,0.00
"USC00502692","1972-11-02",35.06,21.02,0.00,,0.00
"USC00502692","1972-11-03",30.92,17.06,0.00,,0.00
"USC00502692","1972-11-04",28.94,15.08,0.00,,0.00
"USC00502692","1972-11-05",35.06,15.98,0.00,,0.00
"USC00502692","1972-11-06",35.06,24.98,10.00,,25.00
"USC00502692","1972-11-07",37.04,32.00,48.00,,0.00
"USC00502692","1972-11-08",35.96,23.00,0.00,,0.00
"USC00502692","1972-11-09",35.96,19.94,0.00,,0.00
"USC00502692","1972-11-10",37.04,21.92,0.00,,0.00
"USC00502692","1972-11-11",32.00,15.98,0.00,,0.00
"USC00502692","1972-11-12",33.98,6.98,0.00,,0.00
"USC00502692","1972-11-13",37.04,10.04,0.00,,0.00
"USC00502692","1972-11-14",39.92,26.06,0.00,,0.00
"USC00502692","1972-11-15",39.02,,0.00,,0.00
"USC00502692","1972-11-16",39.92,,30.00,,0.00
"USC00502692","1972-11-17",39.92,28.94,0.00,,0.00
"USC00502692","1972-11-18",42.08,28.94,0.00,,0.00
"USC00502692","1972-11-19",42.08,33.08,71.00,,0.00
"USC00502692","1972-11-20",35.06,24.98,0.00,,0.00
"USC00502692","1972-11-21",32.00,24.98,0.00,,0.00